Regional Weather Roundup
Issued by NWS

Home | Current Version | Previous Version | Text Only | Print | Product List | Glossary Off
Versions: 1 2 3 4 5 6 7 8 9 10 11 12 13 14 15 16 17 18 19 20 21 22 23 24 25 26 27 28 29 30 31 32 33 34 35 36 37 38 39 40 41 42 43 44 45 46 47 48 49 50

000
ASUS43 KIND 011709
RWRIN

WEATHER ROUNDUP FOR INDIANA
NATIONAL WEATHER SERVICE INDIANAPOLIS IN
100 PM EDT WED JUL 01 2015

NOTE: "FAIR" INDICATES FEW OR NO CLOUDS BELOW 12,000 FEET WITH NO
SIGNIFICANT WEATHER AND/OR OBSTRUCTIONS TO VISIBILITY.

* - STATION DOES NOT REPORT WEATHER SUCH AS PRECIPITATION OR FOG.

+ - STATION NOT QUALITY CONTROLLED BY THE NATIONAL WEATHER SERVICE.
    USE DATA WITH CAUTION...ESPECIALLY DEWPOINT AND RELATIVE
    HUMIDITY OBSERVATIONS.

INZ001>003-010>013-019-020-011800-
NORTHWEST INDIANA

CITY           SKY/WX    TMP DP  RH WIND       PRES   REMARKS
GARY /AIRPORT/ PTSUNNY   63  55  77 NE14      29.99R
KNOX *+        MOSUNNY   68  55  64 N5        29.96S
LA PORTE +     SUNNY     67  58  70 N8        29.98S
MICHIGAN CITY+ MOSUNNY   63  54  72 NW6       29.99S
MONTICELLO +   MOSUNNY   70  61  72 CALM      29.96S
RENSSELAER +   MOSUNNY   70  63  78 N6        29.96F
VALPARAISO     MOSUNNY   68  55  63 N7        29.98R

$$

LMZ046-743>745-011800-
SOUTHERN LAKE MICHIGAN

STATION/POSITION TIME  TEMP    WIND        PRES    WAVE
                       AIR SEA DIR/SP/G            HT
                 (UTC) (F)     (DEG/KT/KT) (MB)    (FT)
BURNS HARBOR     1700   58      20/ 12/ 13 1015.9F
MICHIGAN CITY    1700   57     360/ 10/ 11   N/A
5NW MICH CITY    1700   58 65   20/ 10/ 14   N/A     3

$$

INZ004-005-014>016-021>024-011800-
NORTH CENTRAL INDIANA

CITY           SKY/WX    TMP DP  RH WIND       PRES   REMARKS
ELKHART        MOSUNNY   68  54  60 NW10      29.97S
GOSHEN         MOSUNNY   69  57  65 NW10      29.96S
LOGANSPORT +   MOSUNNY   70  55  60 NW5       29.97S
PERU/GRISSOM   MOSUNNY   71  61  70 VRB3      29.95S
ROCHESTER +    MOSUNNY   73  61  64 N5        29.96F
SOUTH BEND     SUNNY     67  54  63 NW10      29.97F
WARSAW +         N/A     68  57  68 NW6       29.96S

$$

INZ006>009-017-018-025>027-011800-
NORTHEAST INDIANA

CITY           SKY/WX    TMP DP  RH WIND       PRES   REMARKS
ANGOLA *+      SUNNY     70  63  78 N8        29.94F
AUBURN +       SUNNY     72  55  56 NW6       29.96S
FORT WAYNE     MOSUNNY   72  59  63 NW8       29.96R
HUNTINGTON +   MOSUNNY   71  60  68 W5        29.95F

$$

INZ028-029-035-036-043>045-051>053-011800-
WEST CENTRAL INDIANA

CITY           SKY/WX    TMP DP  RH WIND       PRES   REMARKS
CRAWFORDSVL +  PTSUNNY   70  58  66 CALM      29.96S
GREENCASTLE +  PTSUNNY   72  61  68 CALM      29.96S
LAFAYETTE      PTSUNNY   70  60  70 CALM      29.95S
TERRE HAUTE    PTSUNNY   74  67  78 CALM      29.94F

$$

INZ030>032-037>040-046>048-054>057-064-065-011800-
CENTRAL INDIANA

CITY           SKY/WX    TMP DP  RH WIND       PRES   REMARKS
ANDERSON       MOSUNNY   73  55  53 CALM      29.98R
CP ATTERBURY + PTSUNNY   75  61  60 CALM      29.96S
COLUMBUS       PTSUNNY   75  63  64 SE3       29.96S
FRANKFORT +    PTSUNNY   73  62  68 CALM      29.98S
GREENWOOD *+   PTSUNNY   75  59  57 CALM      29.96F
INDIANAPOLIS   CLOUDY    75  60  59 VRB3      29.94S
-EAGLE CREEK   PTSUNNY   74  61  63 VRB3      29.95S
KOKOMO *+      MOSUNNY   73  61  64 NE3       29.96S
MARION +       SUNNY     71  59  66 CALM      29.97S
MT COMFORT *+  MOSUNNY   73  54  49 CALM      29.96F
SHELBYVILLE    PTSUNNY   77  63  61 CALM      29.95F
ZIONSVILLE +   PTSUNNY   73  60  62 CALM      29.97S

$$

INZ033-034-041-042-049-050-058-059-011800-
EAST CENTRAL INDIANA

CITY           SKY/WX    TMP DP  RH WIND       PRES   REMARKS
MUNCIE         MOSUNNY   74  60  61 CALM      29.96S

$$

INZ060-061-067>069-081>083-085>088-011800-
SOUTHWEST INDIANA

CITY           SKY/WX    TMP DP  RH WIND       PRES   REMARKS
EVANSVILLE     CLOUDY    74  71  91 SW9       29.96S FOG
HUNTINGBURG *+ CLOUDY    73  70  88 SW9       29.96S
WASHINGTON +   PTSUNNY   77  67  71 S5        29.93S

$$

INZ062-063-066-070>080-084-089>092-011800-
SOUTH CENTRAL AND SOUTHEAST INDIANA

CITY           SKY/WX    TMP DP  RH WIND       PRES   REMARKS
BLOOMINGTON    PTSUNNY   75  66  73 E3        29.95S
MADISON *+     MOSUNNY   75  63  64 CALM      29.98S
NORTH VERNON + MOSUNNY   77  64  65 CALM      29.96S
SEYMOUR +      MOSUNNY   77  66  69 CALM      29.96S

$$



USA.gov is the U.S. government's official web portal to all federal, state and local government web resources and services.